Find Starlink 5930

NORAD ID: 55928 Int'l Des: 2023-037 Owner: SPXS Country: US Constellation: starlink operational
LEOCIRCULAR

Live Position

Loading 3D Globe...

About Starlink 5930

Description loading...

Upcoming Passes

Passes for default location (London). Set your location on the main map for personalized predictions.

Altitude History

Loading altitude history...

Two-Line Element Set

1 55928U 23037Q 26122.11578215 .00000495 00000-0 49284-4 0 9996
2 55928 69.9996 169.5990 0003138 269.2967 90.7833 14.98329027171491
Epoch: May 2, 2026 • Age: 6 hours

Current Status

Altitude 581.0 km
Velocity 7.57 km/s
Sub-Earth Point -28.29°S, 161.61°E
Launch Date Mar 17, 2023
Age 3.1 years
Type internet

Technical Details

Classification Payload
Mass 305.00 kg
Dry Mass 290.00 kg
Total Mass 305.00 kg
Length 0.20 m
Diameter 2.80 m
Span 9.00 m
Shape Box + pan
Manufacturer SPXS
Bus Type Starlink
Phase Status In Orbit
Owner/State SPXS/US

Most Searched